| time (UTC) | temp C | wind direction | speed KPH | gust KPH | rain 1hr cm | rain 24hr cm | rain mn cm | humidity % | barometer mb |
| 20260507040403 | 8 | 277 | 1.6 | 9.7 | 0.08 | 2.16 | 0.00 | 92 | 1007.1 |
| 20260507040018 | 7 | 277 | 0.0 | 6.4 | 0.08 | 2.16 | 2.16 | 92 | 1007.2 |
| 20260507035901 | 8 | 277 | 1.6 | 6.4 | 0.08 | 2.16 | 2.16 | 92 | 1007.2 |
| 20260507035401 | 8 | 277 | 1.6 | 8.0 | 0.05 | 2.13 | 2.13 | 92 | 1007.2 |
| 20260507034901 | 8 | 277 | 1.6 | 8.0 | 0.08 | 2.13 | 2.13 | 93 | 1007.1 |
| 20260507034614 | 8 | 277 | 3.2 | 8.0 | 0.10 | 2.13 | 2.13 | 93 | 1007.2 |
| 20260507034401 | 8 | 277 | 1.6 | 6.4 | 0.10 | 2.13 | 2.13 | 93 | 1007.1 |
| 20260507033901 | 8 | 277 | 3.2 | 6.4 | 0.10 | 2.13 | 2.13 | 93 | 1006.9 |
| 20260507033402 | 8 | 277 | 3.2 | 6.4 | 0.13 | 2.13 | 2.13 | 93 | 1006.9 |
| 20260507033013 | 8 | 277 | 3.2 | 6.4 | 0.13 | 2.13 | 2.13 | 93 | 1007.0 |
| 20260507032902 | 8 | 277 | 1.6 | 6.4 | 0.13 | 2.13 | 2.13 | 93 | 1006.9 |
| 20260507032403 | 8 | 277 | 1.6 | 4.8 | 0.10 | 2.11 | 2.11 | 94 | 1006.6 |
| 20260507031602 | 8 | 277 | 0.0 | 4.8 | 0.13 | 2.11 | 2.11 | 94 | 1006.6 |
| 20260507031401 | 9 | 277 | 1.6 | 4.8 | 0.13 | 2.11 | 2.11 | 94 | 1006.6 |
| 20260507030902 | 9 | 277 | 1.6 | 6.4 | 0.18 | 2.11 | 2.11 | 93 | 1006.6 |
| 20260507030127 | 9 | 277 | 0.0 | 3.2 | 0.18 | 2.08 | 2.08 | 94 | 1006.6 |
| 20260507025401 | 9 | 277 | 0.0 | 6.4 | 0.18 | 2.08 | 2.06 | 94 | 1006.4 |
| 20260507024902 | 9 | 277 | 1.6 | 6.4 | 0.15 | 2.06 | 2.03 | 93 | 1006.5 |
| 20260507024601 | 9 | 277 | 1.6 | 6.4 | 0.13 | 2.03 | 2.03 | 93 | 1006.5 |
| 20260507024405 | 10 | 277 | 1.6 | 6.4 | 0.13 | 2.03 | 2.03 | 93 | 1006.3 |
| 20260507023902 | 10 | 277 | 1.6 | 6.4 | 0.15 | 2.03 | 2.03 | 94 | 1006.2 |
| 20260507023401 | 10 | 277 | 1.6 | 6.4 | 0.13 | 2.01 | 2.01 | 94 | 1006.2 |
| 20260507023152 | 10 | 277 | 1.6 | 6.4 | 0.13 | 2.03 | 2.01 | 94 | 1006.1 |
| 20260507022902 | 10 | 277 | 1.6 | 6.4 | 0.13 | 2.01 | 2.01 | 95 | 1006.1 |
| 20260507022401 | 10 | 277 | 0.0 | 3.2 | 0.13 | 2.01 | 2.01 | 95 | 1006.1 |
| 20260507021902 | 10 | 277 | 0.0 | 3.2 | 0.10 | 2.01 | 1.98 | 95 | 1006.0 |
| 20260507021553 | 10 | 277 | 0.0 | 3.2 | 0.10 | 2.01 | 1.98 | 95 | 1006.1 |
| 20260507021401 | 10 | 277 | 0.0 | 3.2 | 0.10 | 2.01 | 1.96 | 95 | 1006.2 |
| 20260507020902 | 10 | 277 | 0.0 | 3.2 | 0.05 | 1.96 | 1.93 | 95 | 1006.1 |
| 20260507020402 | 10 | 277 | 0.0 | 3.2 | 0.03 | 1.93 | 1.91 | 95 | 1005.8 |
| 20260507020127 | 10 | 277 | 0.0 | 1.6 | 0.03 | 1.93 | 1.91 | 95 | 1005.7 |
| 20260507015902 | 11 | 277 | 0.0 | 1.6 | 0.03 | 1.93 | 1.91 | 95 | 1005.7 |
| 20260507015402 | 11 | 277 | 0.0 | 1.6 | 0.03 | 1.93 | 1.91 | 95 | 1005.7 |
| 20260507014901 | 11 | 277 | 0.0 | 1.6 | 0.03 | 1.93 | 1.91 | 95 | 1005.6 |
| 20260507014521 | 11 | 277 | 0.0 | 1.6 | 0.03 | 1.93 | 1.91 | 95 | 1005.6 |
| 20260507014401 | 11 | 277 | 0.0 | 0.0 | 0.03 | 1.93 | 1.91 | 95 | 1005.7 |
| 20260507013901 | 11 | 277 | 0.0 | 0.0 | 0.00 | 1.91 | 1.88 | 95 | 1005.7 |
| 20260507013403 | 11 | 277 | 0.0 | 0.0 | 0.00 | 1.91 | 1.88 | 95 | 1005.8 |
| 20260507013111 | 11 | 277 | 0.0 | 0.0 | 0.00 | 1.91 | 1.88 | 95 | 1005.7 |
| 20260507012902 | 11 | 277 | 0.0 | 0.0 | 0.00 | 1.91 | 1.88 | 96 | 1005.6 |
| 20260507012402 | 11 | 277 | 0.0 | 0.0 | 0.00 | 1.91 | 1.88 | 96 | 1005.7 |
| 20260507011902 | 11 | 277 | 0.0 | 0.0 | 0.00 | 1.91 | 1.88 | 95 | 1005.7 |
| 20260507011514 | 11 | 277 | 0.0 | 0.0 | 0.00 | 1.91 | 1.88 | 96 | 1005.7 |
| 20260507011403 | 11 | 277 | 0.0 | 0.0 | 0.00 | 1.91 | 1.88 | 96 | 1005.7 |
| 20260507010900 | 11 | 277 | 0.0 | 0.0 | 0.00 | 1.91 | 1.88 | 95 | 1005.7 |
| 20260507010402 | 11 | 277 | 0.0 | 0.0 | 0.05 | 1.91 | 1.88 | 95 | 1005.6 |
| 20260507005904 | 11 | 277 | 0.0 | 0.0 | 0.13 | 1.91 | 1.88 | 95 | 1005.6 |
| 20260507005402 | 11 | 277 | 0.0 | 0.0 | 0.23 | 1.91 | 1.88 | 95 | 1005.7 |
| 20260507004901 | 11 | 277 | 0.0 | 0.0 | 0.38 | 1.91 | 1.88 | 95 | 1005.7 |
| 20260507004653 | 11 | 277 | 0.0 | 0.0 | 0.43 | 1.91 | 1.88 | 95 | 1005.6 |
| 20260507004359 | 11 | 277 | 0.0 | 1.6 | 0.43 | 1.91 | 1.88 | 95 | 1005.7 |
| 20260507003858 | 12 | 277 | 0.0 | 1.6 | 0.46 | 1.91 | 1.88 | 95 | 1005.7 |
| 20260507003358 | 12 | 277 | 0.0 | 1.6 | 0.46 | 1.91 | 1.88 | 95 | 1005.7 |
| 20260507003039 | 11 | 277 | 0.0 | 1.6 | 0.46 | 1.91 | 1.88 | 95 | 1005.5 |
| 20260507002856 | 12 | 277 | 0.0 | 1.6 | 0.48 | 1.91 | 1.88 | 95 | 1005.6 |
| 20260507002357 | 12 | 277 | 0.0 | 1.6 | 0.48 | 1.91 | 1.88 | 95 | 1005.6 |
| 20260507001856 | 12 | 277 | 1.6 | 3.2 | 0.48 | 1.91 | 1.88 | 95 | 1005.4 |
| 20260507001630 | 12 | 277 | 0.0 | 3.2 | 0.48 | 1.91 | 1.88 | 95 | 1005.4 |
| 20260507001356 | 12 | 277 | 1.6 | 3.2 | 0.48 | 1.91 | 1.88 | 94 | 1005.3 |
| 20260507000855 | 12 | 277 | 1.6 | 3.2 | 0.48 | 1.91 | 1.85 | 94 | 1005.3 |
| 20260507000357 | 12 | 277 | 1.6 | 4.8 | 0.46 | 1.85 | 1.83 | 93 | 1005.2 |
| 20260507000033 | 12 | 277 | 0.0 | 4.8 | 0.46 | 1.80 | 1.78 | 93 | 1005.1 |
| 20260506235850 | 13 | 277 | 1.6 | 4.8 | 0.46 | 1.78 | 1.75 | 93 | 1005.1 |
| 20260506235347 | 13 | 277 | 1.6 | 4.8 | 0.36 | 1.68 | 1.63 | 93 | 1005.1 |
| 20260506234846 | 14 | 277 | 1.6 | 4.8 | 0.20 | 1.50 | 1.47 | 94 | 1004.9 |
| 20260506234627 | 13 | 277 | 1.6 | 4.8 | 0.18 | 1.45 | 1.42 | 94 | 1004.7 |
| 20260506234346 | 14 | 277 | 1.6 | 4.8 | 0.20 | 1.47 | 1.45 | 94 | 1004.5 |
| 20260506233846 | 14 | 277 | 1.6 | 8.0 | 0.18 | 1.45 | 1.42 | 94 | 1004.2 |
| 20260506233347 | 14 | 277 | 3.2 | 9.7 | 0.18 | 1.45 | 1.42 | 94 | 1004.1 |
| 20260506233013 | 14 | 277 | 1.6 | 12.9 | 0.15 | 1.45 | 1.40 | 94 | 1004.0 |
| 20260506232844 | 14 | 277 | 4.8 | 14.5 | 0.15 | 1.42 | 1.40 | 94 | 1004.1 |
| 20260506232343 | 14 | 277 | 4.8 | 16.1 | 0.15 | 1.42 | 1.40 | 94 | 1004.1 |
| 20260506231845 | 14 | 277 | 4.8 | 16.1 | 0.15 | 1.42 | 1.40 | 93 | 1004.1 |
| 20260506231609 | 14 | 277 | 3.2 | 16.1 | 0.15 | 1.45 | 1.40 | 93 | 1004.0 |
| 20260506231344 | 14 | 277 | 3.2 | 11.3 | 0.15 | 1.42 | 1.40 | 94 | 1004.3 |
| 20260506230844 | 14 | 277 | 3.2 | 11.3 | 0.15 | 1.42 | 1.40 | 94 | 1004.3 |
| 20260506230012 | 14 | 277 | 1.6 | 9.7 | 0.08 | 1.40 | 1.32 | 94 | 1004.3 |
| 20260506225844 | 15 | 277 | 3.2 | 9.7 | 0.05 | 1.35 | 1.30 | 94 | 1004.4 |
| 20260506225344 | 15 | 277 | 3.2 | 8.0 | 0.05 | 1.35 | 1.30 | 94 | 1004.5 |
| 20260506224844 | 15 | 277 | 3.2 | 9.7 | 0.03 | 1.32 | 1.27 | 93 | 1004.6 |
| 20260506224604 | 14 | 277 | 3.2 | 9.7 | 0.03 | 1.35 | 1.27 | 93 | 1004.4 |
| 20260506224344 | 15 | 277 | 3.2 | 9.7 | 0.00 | 1.30 | 1.24 | 93 | 1004.6 |
| 20260506223845 | 15 | 277 | 1.6 | 9.7 | 0.00 | 1.30 | 1.24 | 93 | 1004.6 |
| 20260506223345 | 15 | 277 | 1.6 | 8.0 | 0.00 | 1.30 | 1.24 | 93 | 1004.8 |
| 20260506223002 | 14 | 277 | 1.6 | 8.0 | 0.00 | 1.52 | 1.24 | 93 | 1004.6 |
| 20260506222844 | 15 | 277 | 1.6 | 8.0 | 0.00 | 1.32 | 1.24 | 93 | 1004.9 |
| 20260506222344 | 15 | 277 | 1.6 | 9.7 | 0.00 | 1.32 | 1.24 | 93 | 1004.9 |
| 20260506221603 | 15 | 277 | 3.2 | 9.7 | 0.03 | 1.52 | 1.24 | 93 | 1004.9 |
| 20260506221343 | 15 | 277 | 1.6 | 6.4 | 0.03 | 1.32 | 1.24 | 93 | 1005.0 |
| 20260506220844 | 15 | 277 | 0.0 | 4.8 | 0.03 | 1.32 | 1.24 | 93 | 1005.1 |
| 20260506220003 | 15 | 277 | 0.0 | 4.8 | 0.03 | 1.52 | 1.24 | 93 | 1005.2 |
| 20260506215844 | 15 | 277 | 1.6 | 8.0 | 0.03 | 1.52 | 1.24 | 93 | 1005.3 |
| 20260506214839 | 15 | 277 | 1.6 | 6.4 | 0.05 | 1.52 | 1.24 | 93 | 1005.4 |
| 20260506214603 | 15 | 277 | 0.0 | 8.0 | 0.05 | 1.52 | 1.24 | 93 | 1005.2 |
| 20260506214337 | 15 | 277 | 1.6 | 8.0 | 0.08 | 1.52 | 1.24 | 93 | 1005.4 |
| 20260506213836 | 15 | 277 | 3.2 | 12.9 | 0.08 | 1.52 | 1.24 | 93 | 1005.6 |
| 20260506213335 | 15 | 277 | 3.2 | 14.5 | 0.08 | 1.52 | 1.24 | 93 | 1005.7 |
| 20260506213003 | 15 | 277 | 4.8 | 14.5 | 0.08 | 1.52 | 1.24 | 93 | 1005.4 |
| 20260506212835 | 15 | 277 | 3.2 | 16.1 | 0.08 | 1.52 | 1.24 | 93 | 1005.7 |
| 20260506212332 | 15 | 277 | 3.2 | 16.1 | 0.08 | 1.52 | 1.24 | 93 | 1005.7 |
| 20260506211601 | 15 | 277 | 3.2 | 19.3 | 0.05 | 1.50 | 1.22 | 93 | 1005.5 |
| 20260506211331 | 15 | 277 | 4.8 | 19.3 | 0.08 | 1.50 | 1.22 | 93 | 1005.6 |
| 20260506210829 | 15 | 277 | 3.2 | 11.3 | 0.08 | 1.50 | 1.22 | 93 | 1005.7 |
| 20260506210329 | 15 | 277 | 3.2 | 12.9 | 0.08 | 1.50 | 1.22 | 93 | 1005.7 |
| 20260506205329 | 15 | 277 | 1.6 | 11.3 | 0.10 | 1.50 | 1.22 | 93 | 1005.7 |
| 20260506204829 | 15 | 277 | 1.6 | 6.4 | 0.08 | 1.47 | 1.19 | 94 | 1005.7 |
| 20260506204603 | 15 | 277 | 0.0 | 6.4 | 0.08 | 1.45 | 1.19 | 94 | 1005.5 |
| 20260506204331 | 15 | 277 | 1.6 | 6.4 | 0.08 | 1.45 | 1.17 | 93 | 1005.7 |
| 20260506203828 | 15 | 277 | 1.6 | 4.8 | 0.08 | 1.45 | 1.17 | 93 | 1005.7 |
| 20260506203329 | 15 | 277 | 1.6 | 9.7 | 0.10 | 1.45 | 1.17 | 93 | 1005.7 |
| 20260506203008 | 15 | 277 | 0.0 | 9.7 | 0.10 | 1.42 | 1.17 | 93 | 1005.4 |
| 20260506202830 | 15 | 277 | 1.6 | 9.7 | 0.10 | 1.45 | 1.17 | 93 | 1005.7 |
| 20260506202329 | 15 | 277 | 1.6 | 14.5 | 0.10 | 1.45 | 1.17 | 93 | 1005.7 |
| 20260506201829 | 15 | 277 | 3.2 | 19.3 | 0.13 | 1.45 | 1.17 | 93 | 1005.7 |
| 20260506201602 | 15 | 277 | 0.0 | 19.3 | 0.13 | 1.42 | 1.17 | 93 | 1005.4 |
| 20260506201330 | 15 | 277 | 3.2 | 19.3 | 0.13 | 1.42 | 1.14 | 93 | 1005.7 |
| 20260506200829 | 15 | 277 | 3.2 | 11.3 | 0.15 | 1.42 | 1.14 | 93 | 1005.8 |
| 20260506200003 | 15 | 277 | 0.0 | 17.7 | 0.15 | 1.42 | 1.14 | 93 | 1005.5 |
| 20260506195830 | 15 | 277 | 4.8 | 17.7 | 0.18 | 1.42 | 1.14 | 93 | 1005.8 |
| 20260506195330 | 15 | 277 | 6.4 | 20.9 | 0.15 | 1.40 | 1.12 | 93 | 1005.9 |
| 20260506194623 | 14 | 277 | 4.8 | 20.9 | 0.18 | 1.40 | 1.12 | 93 | 1005.6 |
| 20260506194329 | 15 | 277 | 3.2 | 19.3 | 0.15 | 1.37 | 1.09 | 93 | 1005.9 |
| 20260506193330 | 15 | 277 | 4.8 | 14.5 | 0.15 | 1.27 | 1.07 | 93 | 1006.0 |
| 20260506193001 | 14 | 277 | 3.2 | 11.3 | 0.18 | 1.35 | 1.07 | 93 | 1005.8 |
| 20260506192829 | 15 | 277 | 3.2 | 9.7 | 0.20 | 1.27 | 1.07 | 93 | 1006.0 |
| 20260506192330 | 14 | 277 | 1.6 | 8.0 | 0.30 | 1.27 | 1.07 | 93 | 1006.1 |
| 20260506191551 | 14 | 277 | 0.0 | 8.0 | 0.38 | 1.30 | 1.02 | 94 | 1006.0 |
| 20260506190830 | 14 | 277 | 0.0 | 4.8 | 0.41 | 1.27 | 0.99 | 94 | 1006.3 |
| 20260506190329 | 14 | 277 | 0.0 | 1.6 | 0.53 | 1.27 | 0.99 | 94 | 1006.4 |
| 20260506190004 | 14 | 277 | 0.0 | 0.0 | 0.58 | 1.27 | 0.99 | 95 | 1006.1 |
| 20260506185829 | 14 | 277 | 0.0 | 0.0 | 0.58 | 0.69 | 0.97 | 95 | 1006.5 |
| 20260506185329 | 14 | 277 | 0.0 | 4.8 | 0.76 | 0.69 | 0.97 | 95 | 1006.5 |
| 20260506184831 | 14 | 277 | 0.0 | 4.8 | 0.84 | 0.69 | 0.94 | 94 | 1006.6 |
| 20260506184550 | 14 | 277 | 0.0 | 1.6 | 0.86 | 1.22 | 0.94 | 94 | 1006.4 |
| 20260506183829 | 14 | 277 | 0.0 | 3.2 | 0.86 | 0.69 | 0.91 | 94 | 1006.8 |
| 20260506183002 | 14 | 277 | 0.0 | 3.2 | 0.86 | 1.17 | 0.89 | 94 | 1007.0 |
| 20260506182829 | 14 | 277 | 0.0 | 3.2 | 0.84 | 0.69 | 0.84 | 94 | 1007.3 |
| 20260506182329 | 15 | 277 | 0.0 | 1.6 | 0.74 | 0.69 | 0.74 | 94 | 1007.0 |
| 20260506181830 | 15 | 277 | 0.0 | 1.6 | 0.69 | 0.69 | 0.69 | 94 | 1007.3 |
| 20260506181602 | 14 | 277 | 0.0 | 1.6 | 0.64 | 0.94 | 0.69 | 94 | 1007.1 |
| 20260506181330 | 15 | 277 | 0.0 | 1.6 | 0.61 | 0.69 | 0.64 | 93 | 1007.2 |
| 20260506180831 | 15 | 277 | 0.0 | 1.6 | 0.56 | 0.69 | 0.56 | 93 | 1007.2 |
| 20260506180006 | 15 | 277 | 0.0 | 0.0 | 0.38 | 0.69 | 0.41 | 92 | 1007.0 |
| 20260506175829 | 15 | 277 | 0.0 | 0.0 | 0.36 | 0.30 | 0.36 | 92 | 1007.3 |
| 20260506175329 | 15 | 277 | 0.0 | 1.6 | 0.15 | 0.30 | 0.18 | 91 | 1007.2 |
| 20260506174604 | 15 | 277 | 0.0 | 6.4 | 0.10 | 0.38 | 0.10 | 89 | 1006.7 |
| 20260506174330 | 15 | 277 | 1.6 | 6.4 | 0.05 | 0.30 | 0.05 | 89 | 1006.8 |
| 20260506173829 | 15 | 277 | 1.6 | 4.8 | 0.05 | 0.30 | 0.03 | 87 | 1006.8 |
| 20260506173330 | 15 | 277 | 1.6 | 6.4 | 0.03 | 0.30 | 0.03 | 86 | 1006.9 |
| 20260506173002 | 15 | 277 | 0.0 | 8.0 | 0.03 | 0.30 | 0.03 | 86 | 1006.6 |
| 20260506172826 | 16 | 277 | 3.2 | 8.0 | 0.03 | 0.30 | 0.03 | 85 | 1006.9 |
| 20260506171544 | 15 | 277 | 0.0 | 6.4 | 0.03 | 0.30 | 0.03 | 85 | 1006.9 |
| 20260506170817 | 15 | 277 | 3.2 | 11.3 | 0.03 | 0.30 | 0.03 | 85 | 1007.3 |
| 20260506170317 | 15 | 277 | 3.2 | 11.3 | 0.03 | 0.30 | 0.03 | 85 | 1007.3 |
| 20260506170005 | 15 | 277 | 3.2 | 11.3 | 0.03 | 0.30 | 0.03 | 86 | 1007.1 |
| 20260506165817 | 15 | 277 | 1.6 | 8.0 | 0.03 | 0.28 | 0.03 | 86 | 1007.4 |
| 20260506165318 | 15 | 277 | 1.6 | 6.4 | 0.03 | 0.28 | 0.03 | 86 | 1007.7 |
| 20260506164817 | 15 | 277 | 1.6 | 8.0 | 0.00 | 0.28 | 0.00 | 85 | 1007.8 |
| 20260506164602 | 15 | 277 | 0.0 | 8.0 | 0.00 | 0.28 | 0.00 | 85 | 1007.6 |
| 20260506164318 | 15 | 277 | 1.6 | 8.0 | 0.00 | 0.28 | 0.00 | 86 | 1007.9 |
| 20260506163817 | 15 | 277 | 0.0 | 4.8 | 0.00 | 0.28 | 0.00 | 86 | 1008.1 |
| 20260506163317 | 15 | 277 | 0.0 | 4.8 | 0.00 | 0.28 | 0.00 | 86 | 1008.2 |
| 20260506163003 | 15 | 277 | 0.0 | 3.2 | 0.00 | 0.28 | 0.00 | 86 | 1007.9 |
| 20260506162817 | 15 | 277 | 0.0 | 3.2 | 0.00 | 0.28 | 0.00 | 86 | 1008.2 |
| 20260506161607 | 15 | 277 | 0.0 | 3.2 | 0.00 | 0.28 | 0.00 | 84 | 1008.3 |
| 20260506161314 | 16 | 277 | 0.0 | 6.4 | 0.00 | 0.28 | 0.00 | 83 | 1008.8 |
| 20260506160815 | 16 | 277 | 0.0 | 6.4 | 0.00 | 0.28 | 0.00 | 83 | 1008.8 |
| 20260506160315 | 16 | 277 | 0.0 | 6.4 | 0.00 | 0.28 | 0.00 | 82 | 1008.8 |
| 20260506160002 | 15 | 277 | 0.0 | 6.4 | 0.00 | 0.28 | 0.00 | 83 | 1008.4 |
| 20260506155815 | 16 | 277 | 1.6 | 6.4 | 0.00 | 0.28 | 0.00 | 83 | 1008.6 |
| 20260506155314 | 16 | 277 | 1.6 | 6.4 | 0.00 | 0.28 | 0.00 | 82 | 1008.8 |
| 20260506154817 | 16 | 277 | 1.6 | 6.4 | 0.00 | 0.28 | 0.00 | 81 | 1009.1 |
| 20260506154602 | 15 | 277 | 0.0 | 6.4 | 0.00 | 0.28 | 0.00 | 80 | 1008.7 |
| 20260506154315 | 16 | 277 | 1.6 | 4.8 | 0.00 | 0.28 | 0.00 | 80 | 1009.1 |
| 20260506153315 | 16 | 277 | 1.6 | 4.8 | 0.00 | 0.28 | 0.00 | 80 | 1009.2 |
| 20260506153002 | 15 | 277 | 1.6 | 4.8 | 0.00 | 0.28 | 0.00 | 79 | 1008.9 |
| 20260506152815 | 16 | 277 | 1.6 | 4.8 | 0.00 | 0.28 | 0.00 | 78 | 1009.2 |
| 20260506152316 | 16 | 277 | 1.6 | 4.8 | 0.00 | 0.28 | 0.00 | 79 | 1009.1 |
| 20260506151815 | 16 | 277 | 1.6 | 4.8 | 0.00 | 0.28 | 0.00 | 79 | 1009.1 |
| 20260506151610 | 15 | 277 | 0.0 | 6.4 | 0.00 | 0.28 | 0.00 | 79 | 1008.9 |
| 20260506151315 | 16 | 277 | 1.6 | 6.4 | 0.00 | 0.28 | 0.00 | 79 | 1009.1 |
| 20260506150314 | 16 | 277 | 1.6 | 4.8 | 0.00 | 0.28 | 0.00 | 79 | 1009.0 |
| 20260506150002 | 15 | 277 | 0.0 | 3.2 | 0.00 | 0.28 | 0.00 | 79 | 1008.8 |
| 20260506145814 | 16 | 277 | 0.0 | 3.2 | 0.00 | 0.28 | 0.00 | 79 | 1009.1 |
| 20260506145314 | 16 | 277 | 0.0 | 3.2 | 0.00 | 0.28 | 0.00 | 79 | 1009.2 |
| 20260506144624 | 15 | 277 | 0.0 | 6.4 | 0.00 | 0.28 | 0.00 | 79 | 1008.8 |
| 20260506144313 | 16 | 277 | 1.6 | 6.4 | 0.00 | 0.28 | 0.00 | 79 | 1009.1 |
| 20260506143813 | 15 | 277 | 1.6 | 4.8 | 0.00 | 0.28 | 0.00 | 79 | 1009.2 |
| 20260506143314 | 15 | 277 | 1.6 | 4.8 | 0.00 | 0.28 | 0.00 | 82 | 1009.0 |
| 20260506143152 | 15 | 277 | 0.0 | 4.8 | 0.00 | 0.28 | 0.00 | 81 | 1008.7 |
| 20260506142814 | 15 | 277 | 1.6 | 4.8 | 0.00 | 0.28 | 0.00 | 81 | 1009.0 |
| 20260506142314 | 15 | 277 | 1.6 | 9.7 | 0.00 | 0.28 | 0.00 | 81 | 1009.0 |
| 20260506141811 | 15 | 277 | 0.0 | 9.7 | 0.00 | 0.28 | 0.00 | 80 | 1008.9 |
| 20260506141551 | 15 | 277 | 0.0 | 9.7 | 0.00 | 0.28 | 0.00 | 80 | 1008.6 |
| 20260506141310 | 15 | 277 | 0.0 | 3.2 | 0.00 | 0.28 | 0.00 | 81 | 1008.8 |
| 20260506140147 | 15 | 277 | 0.0 | 0.0 | 0.00 | 0.28 | 0.00 | 84 | 1008.8 |
| 20260506135806 | 15 | 277 | 0.0 | 0.0 | 0.00 | 0.28 | 0.00 | 85 | 1009.1 |
| 20260506134538 | 15 | 277 | 0.0 | 0.0 | 0.00 | 0.28 | 0.00 | 83 | 1009.0 |
| 20260506134305 | 15 | 277 | 0.0 | 0.0 | 0.00 | 0.28 | 0.00 | 85 | 1009.2 |
| 20260506133803 | 15 | 277 | 0.0 | 0.0 | 0.00 | 0.28 | 0.00 | 84 | 1009.2 |
| 20260506133302 | 14 | 277 | 0.0 | 1.6 | 0.00 | 0.28 | 0.00 | 84 | 1009.2 |
| 20260506133131 | 14 | 277 | 0.0 | 1.6 | 0.00 | 0.28 | 0.00 | 83 | 1009.0 |
| 20260506132800 | 15 | 277 | 0.0 | 1.6 | 0.00 | 0.28 | 0.00 | 83 | 1009.2 |
| 20260506132301 | 15 | 277 | 0.0 | 1.6 | 0.00 | 0.28 | 0.00 | 85 | 1009.6 |
| 20260506131800 | 14 | 277 | 0.0 | 1.6 | 0.00 | 0.28 | 0.00 | 85 | 1009.6 |
| 20260506131531 | 14 | 277 | 0.0 | 1.6 | 0.00 | 0.28 | 0.00 | 85 | 1009.3 |
| 20260506131301 | 14 | 277 | 0.0 | 1.6 | 0.00 | 0.28 | 0.00 | 87 | 1009.6 |
| 20260506130802 | 14 | 277 | 0.0 | 0.0 | 0.00 | 0.28 | 0.00 | 86 | 1009.4 |
| 20260506130143 | 14 | 277 | 0.0 | 0.0 | 0.00 | 0.28 | 0.00 | 87 | 1009.3 |
| 20260506125805 | 14 | 277 | 0.0 | 0.0 | 0.00 | 0.28 | 0.00 | 87 | 1009.6 |
| 20260506125305 | 14 | 277 | 0.0 | 0.0 | 0.00 | 0.28 | 0.00 | 88 | 1009.7 |
| 20260506124800 | 13 | 277 | 0.0 | 0.0 | 0.00 | 0.28 | 0.00 | 88 | 1009.7 |
| 20260506124529 | 13 | 277 | 0.0 | 0.0 | 0.00 | 0.28 | 0.00 | 88 | 1009.5 |
| 20260506124302 | 13 | 277 | 0.0 | 0.0 | 0.00 | 0.28 | 0.00 | 88 | 1009.8 |
| 20260506123802 | 13 | 277 | 0.0 | 0.0 | 0.00 | 0.28 | 0.00 | 89 | 1009.8 |
| 20260506123301 | 13 | 277 | 0.0 | 0.0 | 0.00 | 0.28 | 0.00 | 89 | 1009.8 |
| 20260506123130 | 13 | 277 | 0.0 | 0.0 | 0.00 | 0.28 | 0.00 | 89 | 1009.6 |
| 20260506122802 | 13 | 277 | 0.0 | 0.0 | 0.00 | 0.28 | 0.00 | 90 | 1009.9 |
| 20260506122300 | 13 | 277 | 0.0 | 0.0 | 0.00 | 0.28 | 0.00 | 90 | 1009.8 |
| 20260506121800 | 13 | 277 | 0.0 | 0.0 | 0.00 | 0.28 | 0.00 | 90 | 1010.0 |
| 20260506121543 | 13 | 277 | 0.0 | 0.0 | 0.00 | 0.28 | 0.00 | 90 | 1009.8 |
| 20260506121521 | 13 | 277 | 0.0 | 0.0 | 0.00 | 0.28 | 0.00 | 90 | 1009.7 |
| 20260506120801 | 13 | 277 | 0.0 | 0.0 | 0.00 | 0.28 | 0.00 | 89 | 1009.9 |
| 20260506120132 | 13 | 277 | 0.0 | 0.0 | 0.00 | 0.28 | 0.00 | 90 | 1009.8 |
| 20260506115801 | 13 | 277 | 0.0 | 0.0 | 0.00 | 0.28 | 0.00 | 90 | 1010.1 |
| 20260506114801 | 13 | 277 | 0.0 | 0.0 | 0.00 | 0.28 | 0.00 | 90 | 1010.3 |
| 20260506114539 | 12 | 277 | 0.0 | 0.0 | 0.00 | 0.28 | 0.00 | 90 | 1010.0 |
| 20260506114303 | 13 | 277 | 0.0 | 0.0 | 0.00 | 0.28 | 0.00 | 91 | 1010.2 |
| 20260506113301 | 13 | 277 | 0.0 | 0.0 | 0.00 | 0.28 | 0.00 | 92 | 1010.2 |
| 20260506113130 | 12 | 277 | 0.0 | 0.0 | 0.00 | 0.28 | 0.00 | 92 | 1009.9 |
| 20260506112802 | 13 | 277 | 0.0 | 0.0 | 0.00 | 0.28 | 0.00 | 91 | 1010.1 |
| 20260506112301 | 13 | 277 | 0.0 | 0.0 | 0.00 | 0.28 | 0.00 | 92 | 1010.0 |
| 20260506111802 | 12 | 277 | 0.0 | 0.0 | 0.00 | 0.28 | 0.00 | 92 | 1009.9 |
| 20260506111534 | 12 | 277 | 0.0 | 0.0 | 0.00 | 0.28 | 0.00 | 92 | 1009.7 |
| 20260506111303 | 12 | 277 | 0.0 | 0.0 | 0.00 | 0.28 | 0.00 | 92 | 1010.0 |
| 20260506110039 | 12 | 277 | 0.0 | 0.0 | 0.00 | 0.28 | 0.00 | 93 | 1009.8 |
| 20260506105301 | 12 | 277 | 0.0 | 0.0 | 0.00 | 0.28 | 0.00 | 93 | 1009.9 |
| 20260506104801 | 11 | 277 | 0.0 | 0.0 | 0.00 | 0.28 | 0.00 | 94 | 1009.9 |
| 20260506104545 | 11 | 277 | 0.0 | 0.0 | 0.00 | 0.28 | 0.00 | 94 | 1009.8 |
| 20260506104523 | 11 | 277 | 0.0 | 0.0 | 0.00 | 0.28 | 0.00 | 94 | 1009.7 |
| 20260506103802 | 11 | 277 | 0.0 | 0.0 | 0.00 | 0.28 | 0.00 | 94 | 1009.9 |
| 20260506103128 | 11 | 277 | 0.0 | 0.0 | 0.00 | 0.28 | 0.00 | 94 | 1009.7 |
| 20260506102802 | 11 | 277 | 0.0 | 0.0 | 0.00 | 0.28 | 0.00 | 93 | 1010.0 |
| 20260506102305 | 11 | 277 | 0.0 | 0.0 | 0.00 | 0.28 | 0.00 | 93 | 1009.9 |
| 20260506101759 | 11 | 277 | 0.0 | 0.0 | 0.00 | 0.28 | 0.00 | 94 | 1009.9 |
| 20260506101539 | 11 | 277 | 0.0 | 0.0 | 0.00 | 0.28 | 0.00 | 93 | 1009.8 |
| 20260506101256 | 11 | 277 | 0.0 | 0.0 | 0.00 | 0.28 | 0.00 | 94 | 1009.9 |
| 20260506100756 | 11 | 277 | 0.0 | 0.0 | 0.00 | 0.28 | 0.00 | 93 | 1009.9 |
| 20260506100255 | 11 | 277 | 0.0 | 0.0 | 0.00 | 0.28 | 0.00 | 93 | 1009.8 |
| 20260506100118 | 11 | 277 | 0.0 | 0.0 | 0.00 | 0.28 | 0.00 | 93 | 1009.6 |
| 20260506095756 | 11 | 277 | 0.0 | 0.0 | 0.00 | 0.28 | 0.00 | 93 | 1009.8 |
| 20260506095252 | 11 | 277 | 0.0 | 0.0 | 0.00 | 0.28 | 0.00 | 93 | 1009.8 |
| 20260506094514 | 11 | 277 | 0.0 | 0.0 | 0.00 | 0.28 | 0.00 | 92 | 1009.5 |
| 20260506094249 | 11 | 277 | 0.0 | 0.0 | 0.00 | 0.28 | 0.00 | 92 | 1009.7 |
| 20260506093746 | 11 | 277 | 0.0 | 0.0 | 0.00 | 0.28 | 0.00 | 93 | 1009.7 |
| 20260506093245 | 11 | 277 | 0.0 | 0.0 | 0.00 | 0.28 | 0.00 | 92 | 1009.8 |
| 20260506093106 | 11 | 277 | 0.0 | 0.0 | 0.00 | 0.28 | 0.00 | 92 | 1009.7 |
| 20260506092739 | 11 | 277 | 0.0 | 0.0 | 0.00 | 0.28 | 0.00 | 92 | 1009.9 |
| 20260506091737 | 11 | 277 | 0.0 | 0.0 | 0.00 | 0.28 | 0.00 | 91 | 1009.7 |
| 20260506091504 | 11 | 277 | 0.0 | 0.0 | 0.00 | 0.28 | 0.00 | 91 | 1009.5 |
| 20260506091234 | 11 | 277 | 0.0 | 0.0 | 0.00 | 0.28 | 0.00 | 91 | 1009.7 |
| 20260506090733 | 11 | 277 | 0.0 | 0.0 | 0.00 | 0.28 | 0.00 | 91 | 1009.7 |
| 20260506085730 | 12 | 277 | 0.0 | 0.0 | 0.00 | 0.28 | 0.00 | 90 | 1009.6 |
| 20260506085230 | 12 | 277 | 0.0 | 0.0 | 0.00 | 0.28 | 0.00 | 90 | 1009.4 |
| 20260506084729 | 12 | 277 | 0.0 | 0.0 | 0.00 | 0.28 | 0.00 | 89 | 1009.4 |
| 20260506084510 | 12 | 277 | 0.0 | 0.0 | 0.00 | 0.28 | 0.00 | 89 | 1009.3 |
| 20260506084231 | 12 | 277 | 0.0 | 0.0 | 0.00 | 0.28 | 0.00 | 89 | 1009.4 |
| 20260506083729 | 12 | 277 | 0.0 | 0.0 | 0.00 | 0.28 | 0.00 | 89 | 1009.7 |
| 20260506083103 | 12 | 277 | 0.0 | 0.0 | 0.00 | 0.28 | 0.00 | 89 | 1009.2 |
| 20260506082729 | 12 | 277 | 0.0 | 0.0 | 0.00 | 0.28 | 0.00 | 89 | 1009.4 |
| 20260506082229 | 12 | 277 | 0.0 | 0.0 | 0.00 | 0.28 | 0.00 | 89 | 1009.6 |
| 20260506081502 | 12 | 277 | 0.0 | 0.0 | 0.00 | 0.28 | 0.00 | 89 | 1009.4 |
| 20260506081230 | 13 | 277 | 0.0 | 0.0 | 0.00 | 0.28 | 0.00 | 89 | 1009.4 |
| 20260506080230 | 13 | 277 | 0.0 | 0.0 | 0.00 | 0.28 | 0.00 | 89 | 1009.6 |
| 20260506073231 | 13 | 277 | 0.0 | 0.0 | 0.00 | 0.28 | 0.00 | 90 | 1009.7 |
| 20260506073052 | 13 | 277 | 0.0 | 0.0 | 0.00 | 0.28 | 0.28 | 90 | 1009.2 |
| 20260506072731 | 13 | 277 | 0.0 | 0.0 | 0.00 | 0.28 | 0.00 | 90 | 1009.4 |
| 20260506072233 | 13 | 277 | 0.0 | 0.0 | 0.00 | 0.28 | 0.00 | 90 | 1009.7 |
| 20260506071638 | 13 | 277 | 0.0 | 0.0 | 0.00 | 0.28 | 0.28 | 90 | 1009.4 |
| 20260506070730 | 13 | 277 | 0.0 | 1.6 | 0.00 | 0.28 | 0.00 | 91 | 1009.7 |
| 20260506070229 | 13 | 277 | 0.0 | 1.6 | 0.00 | 0.28 | 0.00 | 91 | 1009.4 |
| 20260506062227 | 13 | 277 | 0.0 | 4.8 | 0.00 | 0.28 | 0.00 | 89 | 1008.9 |
| 20260506061724 | 14 | 277 | 1.6 | 4.8 | 0.00 | 0.28 | 0.00 | 87 | 1008.7 |
| 20260506061615 | 14 | 277 | 0.0 | 3.2 | 0.00 | 0.28 | 0.28 | 85 | 1008.5 |
| 20260506061226 | 14 | 277 | 1.6 | 4.8 | 0.00 | 0.28 | 0.00 | 86 | 1008.7 |
| 20260506060725 | 13 | 277 | 1.6 | 4.8 | 0.00 | 0.28 | 0.00 | 89 | 1008.8 |
| 20260506060222 | 13 | 277 | 0.0 | 0.0 | 0.00 | 0.28 | 0.00 | 92 | 1009.0 |
| 20260506051215 | 13 | 277 | 0.0 | 0.0 | 0.00 | 0.28 | 0.00 | 91 | 1008.6 |
| 20260506050715 | 13 | 277 | 0.0 | 0.0 | 0.00 | 0.28 | 0.00 | 90 | 1008.8 |
| 20260506050215 | 13 | 277 | 0.0 | 0.0 | 0.00 | 0.28 | 0.00 | 90 | 1008.6 |
| 20260506050133 | 13 | 277 | 0.0 | 0.0 | 0.00 | 0.28 | 0.28 | 90 | 1008.4 |
| 20260506044523 | 14 | 277 | 0.0 | 0.0 | 0.00 | 0.28 | 0.28 | 87 | 1008.5 |
| 20260506044215 | 14 | 277 | 0.0 | 0.0 | 0.00 | 0.28 | 0.00 | 86 | 1008.6 |
| 20260506043715 | 15 | 277 | 0.0 | 4.8 | 0.00 | 0.28 | 0.00 | 84 | 1008.5 |
| 20260506043215 | 15 | 277 | 1.6 | 8.0 | 0.00 | 0.28 | 0.00 | 83 | 1008.5 |
| 20260506043114 | 15 | 277 | 0.0 | 8.0 | 0.00 | 0.28 | 0.28 | 83 | 1008.4 |
| 20260506042718 | 14 | 277 | 1.6 | 8.0 | 0.00 | 0.28 | 0.00 | 85 | 1008.5 |
| 20260506042214 | 13 | 277 | 0.0 | 4.8 | 0.00 | 0.28 | 0.00 | 91 | 1008.7 |
| 20260506041716 | 13 | 277 | 0.0 | 0.0 | 0.00 | 0.28 | 0.00 | 92 | 1008.6 |
| 20260506041524 | 12 | 277 | 0.0 | 0.0 | 0.00 | 0.28 | 0.28 | 92 | 1008.4 |
| 20260506041215 | 13 | 277 | 0.0 | 0.0 | 0.00 | 0.28 | 0.00 | 92 | 1008.6 |